TimeCST,TemperatureF,Dew PointF,Humidity,Sea Level PressureIn,VisibilityMPH,Wind Direction,Wind SpeedMPH,Gust SpeedMPH,PrecipitationIn,Events,Conditions,WindDirDegrees,DateUTC
12:52 AM,25.0,21.9,88,30.21,10.0,Calm,Calm,-,N/A,,Clear,0,2012-11-16 06:52:00
1:52 AM,25.0,23.0,92,30.18,10.0,SSE,5.8,-,N/A,,Clear,160,2012-11-16 07:52:00
2:52 AM,25.0,21.9,88,30.16,10.0,South,3.5,-,N/A,,Clear,180,2012-11-16 08:52:00
3:52 AM,28.9,25.0,85,30.12,10.0,South,6.9,-,N/A,,Clear,170,2012-11-16 09:52:00
4:52 AM,28.9,25.0,85,30.10,10.0,South,4.6,-,N/A,,Clear,170,2012-11-16 10:52:00
5:52 AM,27.0,25.0,92,30.09,10.0,Calm,Calm,-,N/A,,Clear,0,2012-11-16 11:52:00
6:52 AM,25.0,24.1,96,30.09,10.0,Calm,Calm,-,N/A,,Clear,0,2012-11-16 12:52:00
7:52 AM,26.1,24.1,92,30.07,10.0,South,3.5,-,N/A,,Clear,190,2012-11-16 13:52:00
8:52 AM,28.9,26.1,89,30.07,10.0,SSE,6.9,-,N/A,,Clear,160,2012-11-16 14:52:00
9:52 AM,32.0,27.0,82,30.06,10.0,SSE,6.9,-,N/A,,Clear,160,2012-11-16 15:52:00
10:52 AM,34.0,28.0,79,30.05,10.0,SSW,4.6,-,N/A,,Clear,200,2012-11-16 16:52:00
11:52 AM,36.0,28.9,76,30.04,10.0,South,4.6,-,N/A,,Clear,190,2012-11-16 17:52:00
12:52 PM,37.0,28.9,73,30.02,10.0,South,5.8,-,N/A,,Clear,180,2012-11-16 18:52:00
1:52 PM,37.9,28.9,70,30.01,10.0,South,8.1,-,N/A,,Clear,190,2012-11-16 19:52:00
2:52 PM,37.0,28.9,73,30.00,10.0,SSW,6.9,-,N/A,,Clear,210,2012-11-16 20:52:00
3:52 PM,36.0,28.9,76,30.01,10.0,West,5.8,-,N/A,,Clear,270,2012-11-16 21:52:00
4:52 PM,34.0,28.9,82,30.01,10.0,SW,3.5,-,N/A,,Clear,220,2012-11-16 22:52:00
5:52 PM,28.9,27.0,92,30.04,10.0,SW,5.8,-,N/A,,Clear,230,2012-11-16 23:52:00
6:52 PM,26.1,24.1,92,30.04,10.0,Calm,Calm,-,N/A,,Clear,0,2012-11-17 00:52:00
7:52 PM,27.0,26.1,96,30.05,10.0,Calm,Calm,-,N/A,,Clear,0,2012-11-17 01:52:00
8:52 PM,25.0,25.0,100,30.05,10.0,Calm,Calm,-,N/A,,Clear,0,2012-11-17 02:52:00
9:52 PM,24.1,24.1,100,30.04,10.0,Calm,Calm,-,N/A,,Clear,0,2012-11-17 03:52:00
10:52 PM,24.1,23.0,96,30.05,10.0,Calm,Calm,-,N/A,,Clear,0,2012-11-17 04:52:00
11:52 PM,26.1,25.0,96,30.06,10.0,Calm,Calm,-,N/A,,Partly Cloudy,0,2012-11-17 05:52:00